This is the latest recevied weather packets stored in our database for station/object SP8EBC-11. If no packets are shown the sender has not sent any weather packets the latest 1 day(s).
| Time | Temp. | Humidity | Pressure | Rain* | Wind** | Luminosity | Snow |
|---|---|---|---|---|---|---|---|
| 1777970244 | 18.33° C | 66% | 993.7 hPa | - | 0.89 m/s, 148° | - | - |
| 1777970124 | 17.78° C | 66% | 993.9 hPa | - | 0.89 m/s, 149° | - | - |
| 1777970004 | 17.78° C | 66% | 994 hPa | - | 1.34 m/s, 123° | - | - |
| 1777969884 | 17.78° C | 66% | 994 hPa | - | 2.24 m/s, 121° | - | - |
| 1777969764 | 17.78° C | 66% | 994 hPa | - | 2.24 m/s, 104° | - | - |
| 1777969643 | 17.78° C | 66% | 994 hPa | - | 1.34 m/s, 71° | - | - |
| 1777969523 | 17.78° C | 66% | 994 hPa | - | 1.79 m/s, 63° | - | - |
| 1777969403 | 17.78° C | 67% | 994 hPa | - | 1.34 m/s, 80° | - | - |
| 1777969283 | 17.78° C | 66% | 994.1 hPa | - | 1.79 m/s, 105° | - | - |
| 1777969163 | 17.78° C | 66% | 994.1 hPa | - | 1.79 m/s, 107° | - | - |
| 1777969043 | 17.78° C | 66% | 994.2 hPa | - | 1.79 m/s, 110° | - | - |
| 1777968923 | 17.78° C | 66% | 994.2 hPa | - | 1.79 m/s, 112° | - | - |
| 1777968803 | 17.22° C | 66% | 994.1 hPa | - | 1.79 m/s, 102° | - | - |
| 1777968683 | 17.22° C | 66% | 994.2 hPa | - | 0.89 m/s, 78° | - | - |
| 1777968563 | 17.22° C | 66% | 994.4 hPa | - | 0.45 m/s, 71° | - | - |
| 1777968443 | 17.22° C | 66% | 994.5 hPa | - | 0.89 m/s, 74° | - | - |
| 1777968322 | 17.78° C | 66% | 994.5 hPa | - | 1.79 m/s, 70° | - | - |
| 1777968203 | 17.78° C | 67% | 994.3 hPa | - | 1.79 m/s, 84° | - | - |
| 1777968083 | 17.78° C | 67% | 994 hPa | - | 1.34 m/s, 84° | - | - |
| 1777967963 | 17.22° C | 67% | 994.1 hPa | - | 0.45 m/s, 99° | - | - |
| 1777967843 | 17.22° C | 67% | 994.1 hPa | - | 0.89 m/s, 91° | - | - |
| 1777967721 | 17.22° C | 67% | 994.1 hPa | - | 1.34 m/s, 85° | - | - |
| 1777967602 | 17.22° C | 67% | 994.2 hPa | - | 0.89 m/s, 89° | - | - |
| 1777967482 | 17.22° C | 67% | 994.1 hPa | - | 1.79 m/s, 91° | - | - |
| 1777967362 | 17.22° C | 67% | 994 hPa | - | 2.24 m/s, 100° | - | - |
* Rain since midnight (hover to see other rain measurements)
** Current wind speed in m/s (hover to see current wind gust speed)